User: anonymous   Login
Location: Biharia
(46.4333°N, 22.8000°E)
Time: 18:15:48
(UTC+00:00)
Language:

Cosmos 1536 Rocket - Orbit

View from above orbital plane
View from above orbital plane
View from above satellite
View from above satellite

Ground track
Ground track

The orbit data is extracted from the following two-line orbital elements,

1 14700U 84013B   22223.18082442  .00000222  00000-0  24123-4 0  9990
2 14700  82.5370 199.2663 0018171 244.1154 126.3887 14.83482663 79831
Epoch (UTC): 11 August 2022 04:20:23
Eccentricity: 0.0018171
inclination: 82.5370°
perigee height: 605 km
apogee height: 631 km
right ascension of ascending node: 199.2663°
argument of perigee: 244.1154°
revolutions per day: 14.83482663
mean anomaly at epoch: 126.3887°
orbit number at epoch: 7983

The dashed part of the orbit path shows where the satellite is in the earth's shadow,  

DLR